Time,TemperatureF,DewpointF,PressureIn,WindDirection,WindDirectionDegrees,WindSpeedMPH,WindSpeedGustMPH,Humidity,HourlyPrecipIn,Conditions,Clouds,dailyrainin,SolarRadiationWatts/m^2,SoftwareType,DateUTC
2013-02-14 00:01:00,27.0,26.0,-100.00,NNE,14,6.0,15.0,96,0.00,,,0.02,0.000000,,2013-02-14 05:01:00,
2013-02-14 00:22:00,27.0,26.0,-100.00,NNE,14,6.0,15.0,96,0.00,,,0.02,0.000000,,2013-02-14 05:22:00,
2013-02-14 00:32:00,27.0,26.0,-100.00,NNE,14,6.0,15.0,96,0.00,,,0.02,0.000000,,2013-02-14 05:32:00,
2013-02-14 00:42:00,27.0,26.0,-100.00,NNE,14,6.0,15.0,96,0.00,,,0.02,0.000000,,2013-02-14 05:42:00,
2013-02-14 00:52:00,27.0,26.0,-100.00,NNE,14,6.0,15.0,96,0.00,,,0.02,0.000000,,2013-02-14 05:52:00,
2013-02-14 01:01:00,27.0,27.0,-100.00,NNE,20,5.0,14.0,98,0.00,,,0.02,0.000000,,2013-02-14 06:01:00,
2013-02-14 01:22:00,27.0,27.0,-100.00,NNE,20,5.0,14.0,98,0.00,,,0.02,0.000000,,2013-02-14 06:22:00,
2013-02-14 01:32:00,27.0,27.0,-100.00,NNE,20,5.0,14.0,98,0.00,,,0.02,0.000000,,2013-02-14 06:32:00,
2013-02-14 01:42:00,27.0,27.0,-100.00,NNE,20,5.0,14.0,98,0.00,,,0.02,0.000000,,2013-02-14 06:42:00,
2013-02-14 01:52:00,27.0,27.0,-100.00,NNE,20,5.0,14.0,98,0.00,,,0.02,0.000000,,2013-02-14 06:52:00,
2013-02-14 02:01:00,26.0,22.0,-100.00,North,11,7.0,15.0,86,0.00,,,0.02,0.000000,,2013-02-14 07:01:00,
2013-02-14 02:32:00,26.0,22.0,-100.00,North,11,7.0,15.0,86,0.00,,,0.02,0.000000,,2013-02-14 07:32:00,
2013-02-14 02:42:00,26.0,22.0,-100.00,North,11,7.0,15.0,86,0.00,,,0.02,0.000000,,2013-02-14 07:42:00,
2013-02-14 02:52:00,26.0,22.0,-100.00,North,11,7.0,15.0,86,0.00,,,0.02,0.000000,,2013-02-14 07:52:00,
2013-02-14 03:01:00,25.0,20.0,-100.00,North,6,7.0,19.0,82,0.00,,,0.02,0.000000,,2013-02-14 08:01:00,
2013-02-14 03:32:00,25.0,20.0,-100.00,North,6,7.0,19.0,82,0.00,,,0.02,0.000000,,2013-02-14 08:32:00,
2013-02-14 03:43:00,25.0,20.0,-100.00,North,6,7.0,19.0,82,0.00,,,0.02,0.000000,,2013-02-14 08:43:00,
2013-02-14 03:52:00,25.0,20.0,-100.00,North,6,7.0,19.0,82,0.00,,,0.02,0.000000,,2013-02-14 08:52:00,
2013-02-14 04:01:00,24.0,20.0,-100.00,NNE,23,5.0,16.0,84,0.00,,,0.02,0.000000,,2013-02-14 09:01:00,
2013-02-14 04:32:00,24.0,20.0,-100.00,NNE,23,5.0,16.0,84,0.00,,,0.02,0.000000,,2013-02-14 09:32:00,
2013-02-14 04:42:00,24.0,20.0,-100.00,NNE,23,5.0,16.0,84,0.00,,,0.02,0.000000,,2013-02-14 09:42:00,
2013-02-14 04:52:00,24.0,20.0,-100.00,NNE,23,5.0,16.0,84,0.00,,,0.02,0.000000,,2013-02-14 09:52:00,
2013-02-14 05:01:00,24.0,20.0,-100.00,NNE,23,6.0,12.0,83,0.00,,,0.02,0.000000,,2013-02-14 10:01:00,
2013-02-14 05:22:00,24.0,20.0,-100.00,NNE,23,6.0,12.0,83,0.00,,,0.02,0.000000,,2013-02-14 10:22:00,
2013-02-14 05:32:00,24.0,20.0,-100.00,NNE,23,6.0,12.0,83,0.00,,,0.02,0.000000,,2013-02-14 10:32:00,
2013-02-14 05:42:00,24.0,20.0,-100.00,NNE,23,6.0,12.0,83,0.00,,,0.02,0.000000,,2013-02-14 10:42:00,
2013-02-14 05:52:00,24.0,20.0,-100.00,NNE,23,6.0,12.0,83,0.00,,,0.02,0.000000,,2013-02-14 10:52:00,
2013-02-14 06:01:00,24.0,20.0,-100.00,NNE,27,5.0,11.0,86,0.00,,,0.02,0.000000,,2013-02-14 11:01:00,
2013-02-14 06:32:00,24.0,20.0,-100.00,NNE,27,5.0,11.0,86,0.00,,,0.02,0.000000,,2013-02-14 11:32:00,
2013-02-14 06:42:00,24.0,20.0,-100.00,NNE,27,5.0,11.0,86,0.00,,,0.02,0.000000,,2013-02-14 11:42:00,
2013-02-14 06:52:00,24.0,20.0,-100.00,NNE,27,5.0,11.0,86,0.00,,,0.02,0.000000,,2013-02-14 11:52:00,
2013-02-14 07:01:00,23.0,20.0,-100.00,NNE,14,6.0,16.0,88,0.00,,,0.02,0.000000,,2013-02-14 12:01:00,
2013-02-14 07:32:00,23.0,20.0,-100.00,NNE,14,6.0,16.0,88,0.00,,,0.02,0.000000,,2013-02-14 12:32:00,
2013-02-14 07:42:00,23.0,20.0,-100.00,NNE,14,6.0,16.0,88,0.00,,,0.02,0.000000,,2013-02-14 12:42:00,
2013-02-14 07:53:00,23.0,20.0,-100.00,NNE,14,6.0,16.0,88,0.00,,,0.02,0.000000,,2013-02-14 12:53:00,
2013-02-14 08:01:00,25.0,21.0,-100.00,North,351,5.0,12.0,85,0.00,,,0.02,5.000000,,2013-02-14 13:01:00,
2013-02-14 08:32:00,25.0,21.0,-100.00,North,351,5.0,12.0,85,0.00,,,0.02,5.000000,,2013-02-14 13:32:00,
2013-02-14 08:42:00,25.0,21.0,-100.00,North,351,5.0,12.0,85,0.00,,,0.02,5.000000,,2013-02-14 13:42:00,
2013-02-14 08:52:00,25.0,21.0,-100.00,North,351,5.0,12.0,85,0.00,,,0.02,5.000000,,2013-02-14 13:52:00,
2013-02-14 09:01:00,29.0,22.0,-100.00,NNW,328,5.0,15.0,76,0.00,,,0.02,34.000000,,2013-02-14 14:01:00,
2013-02-14 09:22:00,29.0,22.0,-100.00,NNW,328,5.0,15.0,76,0.00,,,0.02,34.000000,,2013-02-14 14:22:00,
2013-02-14 09:32:00,29.0,22.0,-100.00,NNW,328,5.0,15.0,76,0.00,,,0.02,34.000000,,2013-02-14 14:32:00,
2013-02-14 09:42:00,29.0,22.0,-100.00,NNW,328,5.0,15.0,76,0.00,,,0.02,34.000000,,2013-02-14 14:42:00,
2013-02-14 09:52:00,29.0,22.0,-100.00,NNW,328,5.0,15.0,76,0.00,,,0.02,34.000000,,2013-02-14 14:52:00,
2013-02-14 10:01:00,33.0,24.0,-100.00,WSW,246,4.0,10.0,70,0.04,,,0.06,80.000000,,2013-02-14 15:01:00,
2013-02-14 10:32:00,33.0,24.0,-100.00,WSW,246,4.0,10.0,70,0.04,,,0.06,80.000000,,2013-02-14 15:32:00,
2013-02-14 10:42:00,33.0,24.0,-100.00,WSW,246,4.0,10.0,70,0.04,,,0.06,80.000000,,2013-02-14 15:42:00,
2013-02-14 10:52:00,33.0,24.0,-100.00,WSW,246,4.0,10.0,70,0.04,,,0.06,80.000000,,2013-02-14 15:52:00,
2013-02-14 11:01:00,33.0,23.0,-100.00,SSW,199,0.0,7.0,67,0.03,,,0.09,105.000000,,2013-02-14 16:01:00,
2013-02-14 11:22:00,33.0,23.0,-100.00,SSW,199,0.0,7.0,67,0.03,,,0.09,105.000000,,2013-02-14 16:22:00,
2013-02-14 11:32:00,33.0,23.0,-100.00,SSW,199,0.0,7.0,67,0.03,,,0.09,105.000000,,2013-02-14 16:32:00,
2013-02-14 11:42:00,33.0,23.0,-100.00,SSW,199,0.0,7.0,67,0.03,,,0.09,105.000000,,2013-02-14 16:42:00,
2013-02-14 11:52:00,33.0,23.0,-100.00,SSW,199,0.0,7.0,67,0.03,,,0.09,105.000000,,2013-02-14 16:52:00,
2013-02-14 12:01:00,33.0,25.0,-100.00,SSW,212,0.0,0.0,71,0.05,,,0.14,156.000000,,2013-02-14 17:01:00,
2013-02-14 12:32:00,33.0,25.0,-100.00,SSW,212,0.0,0.0,71,0.05,,,0.14,156.000000,,2013-02-14 17:32:00,
2013-02-14 12:42:00,33.0,25.0,-100.00,SSW,212,0.0,0.0,71,0.05,,,0.14,156.000000,,2013-02-14 17:42:00,
2013-02-14 12:52:00,33.0,25.0,-100.00,SSW,212,0.0,0.0,71,0.05,,,0.14,156.000000,,2013-02-14 17:52:00,
2013-02-14 13:01:00,37.0,25.0,-100.00,SSW,211,0.0,0.0,61,0.05,,,0.18,679.000000,,2013-02-14 18:01:00,
2013-02-14 13:32:00,37.0,25.0,-100.00,SSW,211,0.0,0.0,61,0.05,,,0.18,679.000000,,2013-02-14 18:32:00,
2013-02-14 13:42:00,37.0,25.0,-100.00,SSW,211,0.0,0.0,61,0.05,,,0.18,679.000000,,2013-02-14 18:42:00,
2013-02-14 13:52:00,37.0,25.0,-100.00,SSW,211,0.0,0.0,61,0.05,,,0.18,679.000000,,2013-02-14 18:52:00,
2013-02-14 14:01:00,39.0,26.0,-100.00,SW,214,0.0,0.0,59,0.00,,,0.18,810.000000,,2013-02-14 19:01:00,
2013-02-14 14:32:00,39.0,26.0,-100.00,SW,214,0.0,0.0,59,0.00,,,0.18,810.000000,,2013-02-14 19:32:00,
2013-02-14 14:42:00,39.0,26.0,-100.00,SW,214,0.0,0.0,59,0.00,,,0.18,810.000000,,2013-02-14 19:42:00,
2013-02-14 14:52:00,39.0,26.0,-100.00,SW,214,0.0,0.0,59,0.00,,,0.18,810.000000,,2013-02-14 19:52:00,
2013-02-14 15:01:00,38.0,24.0,-100.00,SSW,210,0.0,0.0,57,0.00,,,0.18,691.000000,,2013-02-14 20:01:00,
2013-02-14 15:22:00,38.0,24.0,-100.00,SSW,210,0.0,0.0,57,0.00,,,0.18,691.000000,,2013-02-14 20:22:00,
2013-02-14 15:32:00,38.0,24.0,-100.00,SSW,210,0.0,0.0,57,0.00,,,0.18,691.000000,,2013-02-14 20:32:00,
2013-02-14 15:42:00,38.0,24.0,-100.00,SSW,210,0.0,0.0,57,0.00,,,0.18,691.000000,,2013-02-14 20:42:00,
2013-02-14 15:52:00,38.0,24.0,-100.00,SSW,210,0.0,0.0,57,0.00,,,0.18,691.000000,,2013-02-14 20:52:00,
2013-02-14 16:01:00,40.0,23.0,-100.00,SW,216,0.0,0.0,51,0.00,,,-99.99,527.000000,,2013-02-14 21:01:00,
2013-02-14 16:32:00,40.0,23.0,-100.00,SW,216,0.0,0.0,51,0.00,,,-99.99,527.000000,,2013-02-14 21:32:00,
2013-02-14 16:42:00,40.0,23.0,-100.00,SW,216,0.0,0.0,51,0.00,,,-99.99,527.000000,,2013-02-14 21:42:00,
2013-02-14 16:52:00,40.0,23.0,-100.00,SW,216,0.0,0.0,51,0.00,,,-99.99,527.000000,,2013-02-14 21:52:00,
2013-02-14 17:01:00,39.0,25.0,-100.00,SW,215,0.0,0.0,57,0.00,,,0.17,324.000000,,2013-02-14 22:01:00,
2013-02-14 17:21:00,39.0,25.0,-100.00,SW,215,0.0,0.0,57,0.00,,,0.17,324.000000,,2013-02-14 22:21:00,
2013-02-14 17:32:00,39.0,25.0,-100.00,SW,215,0.0,0.0,57,0.00,,,0.17,324.000000,,2013-02-14 22:32:00,
2013-02-14 17:42:00,39.0,25.0,-100.00,SW,215,0.0,0.0,57,0.00,,,0.17,324.000000,,2013-02-14 22:42:00,
2013-02-14 17:52:00,39.0,25.0,-100.00,SW,215,0.0,0.0,57,0.00,,,0.17,324.000000,,2013-02-14 22:52:00,
2013-02-14 18:01:00,35.0,23.0,-100.00,SW,217,0.0,0.0,62,0.00,,,0.17,91.000000,,2013-02-14 23:01:00,
2013-02-14 18:32:00,35.0,23.0,-100.00,SW,217,0.0,0.0,62,0.00,,,0.17,91.000000,,2013-02-14 23:32:00,
2013-02-14 18:42:00,35.0,23.0,-100.00,SW,217,0.0,0.0,62,0.00,,,0.17,91.000000,,2013-02-14 23:42:00,
2013-02-14 18:52:00,35.0,23.0,-100.00,SW,217,0.0,0.0,62,0.00,,,0.17,91.000000,,2013-02-14 23:52:00,
2013-02-14 19:01:00,35.0,23.0,-100.00,SSW,212,0.0,0.0,61,0.00,,,0.17,1.000000,,2013-02-15 00:01:00,
2013-02-14 19:32:00,35.0,23.0,-100.00,SSW,212,0.0,0.0,61,0.00,,,0.17,1.000000,,2013-02-15 00:32:00,
2013-02-14 19:42:00,35.0,23.0,-100.00,SSW,212,0.0,0.0,61,0.00,,,0.17,1.000000,,2013-02-15 00:42:00,
2013-02-14 19:52:00,35.0,23.0,-100.00,SSW,212,0.0,0.0,61,0.00,,,0.17,1.000000,,2013-02-15 00:52:00,
2013-02-14 20:01:00,35.0,23.0,-100.00,SW,222,0.0,0.0,62,0.00,,,-99.99,0.000000,,2013-02-15 01:01:00,
2013-02-14 20:32:00,35.0,23.0,-100.00,SW,222,0.0,0.0,62,0.00,,,-99.99,0.000000,,2013-02-15 01:32:00,
2013-02-14 20:42:00,35.0,23.0,-100.00,SW,222,0.0,0.0,62,0.00,,,-99.99,0.000000,,2013-02-15 01:42:00,
2013-02-14 20:52:00,35.0,23.0,-100.00,SW,222,0.0,0.0,62,0.00,,,-99.99,0.000000,,2013-02-15 01:52:00,
2013-02-14 21:01:00,35.0,23.0,-100.00,SW,227,0.0,0.0,62,0.00,,,0.17,0.000000,,2013-02-15 02:01:00,
2013-02-14 21:21:00,35.0,23.0,-100.00,SW,227,0.0,0.0,62,0.00,,,0.17,0.000000,,2013-02-15 02:21:00,
2013-02-14 21:32:00,35.0,23.0,-100.00,SW,227,0.0,0.0,62,0.00,,,0.17,0.000000,,2013-02-15 02:32:00,
2013-02-14 21:42:00,35.0,23.0,-100.00,SW,227,0.0,0.0,62,0.00,,,0.17,0.000000,,2013-02-15 02:42:00,
2013-02-14 21:52:00,35.0,23.0,-100.00,SW,227,0.0,0.0,62,0.00,,,0.17,0.000000,,2013-02-15 02:52:00,
2013-02-14 22:01:00,34.0,23.0,-100.00,SW,224,0.0,0.0,65,0.00,,,0.17,0.000000,,2013-02-15 03:01:00,
2013-02-14 22:32:00,34.0,23.0,-100.00,SW,224,0.0,0.0,65,0.00,,,0.17,0.000000,,2013-02-15 03:32:00,
2013-02-14 22:42:00,34.0,23.0,-100.00,SW,224,0.0,0.0,65,0.00,,,0.17,0.000000,,2013-02-15 03:42:00,
2013-02-14 22:52:00,34.0,23.0,-100.00,SW,224,0.0,0.0,65,0.00,,,0.17,0.000000,,2013-02-15 03:52:00,
2013-02-14 23:01:00,34.0,24.0,-100.00,SW,224,0.0,0.0,66,0.00,,,0.17,0.000000,,2013-02-15 04:01:00,
2013-02-14 23:22:00,34.0,24.0,-100.00,SW,224,0.0,0.0,66,0.00,,,0.17,0.000000,,2013-02-15 04:22:00,
2013-02-14 23:32:00,34.0,24.0,-100.00,SW,224,0.0,0.0,66,0.00,,,0.17,0.000000,,2013-02-15 04:32:00,
2013-02-14 23:42:00,34.0,24.0,-100.00,SW,224,0.0,0.0,66,0.00,,,0.17,0.000000,,2013-02-15 04:42:00,
2013-02-14 23:52:00,34.0,24.0,-100.00,SW,224,0.0,0.0,66,0.00,,,0.17,0.000000,,2013-02-15 04:52:00,